sat.trackr.live / text

‹ back to catalog

STARLINK-32716

NORAD 63031 · 2025-034C

PAYLOAD ACTIVE UNKNOWN

§ Identity

Operator
Country
US
Launch date
2025-02-18
Launch site
AFETR
Launch vehicle
Mass (kg)
RCS (m²)

Purposes: comms

External: N2YO · Heavens-Above · Gunter

§ Orbital elements

Epoch: 2026-05-25T01:24:46.370592Z

Period
93.85 min
Inclination
53.1610°
Eccentricity
0.0001201
Mean motion
15.34403194 rev/d
Perigee alt
461.9 km
Apogee alt
463.5 km
Semi-major
6,840.8 km
B*
6.9330e-4
RAAN
263.0862°
Arg perigee
79.1227°
Mean anomaly
280.9911°
Rev number
7,078

§ Raw data

STARLINK-327161 63031U 25034C   26145.05887003  .00023123  00000+0  69330-3 0  99902 63031  53.1610 263.0862 0001201  79.1227 280.9911 15.34403194 70786

JSON: /api/v1/satellites/63031 · /tle

For live sub-satellite position, see the globe view (requires WebGL).

§ Visibility from observer

Set your observer location to see the next 7 days of passes ≥ 10°. The values pass through the URL so the page stays shareable.

No JS? Fill the form by hand. The geolocation button needs JavaScript.